This is the latest recevied weather packets stored in our database for station/object KV4OP. If no packets are shown the sender has not sent any weather packets the latest 10 day(s).
| Time | Temp. | Humidity | Pressure | Rain* | Wind** | Luminosity | Snow |
|---|---|---|---|---|---|---|---|
| 1788392428 | 26.67° C | 93% | 1015.1 hPa | 0 mm | - | - | - |
| 1788392120 | 26.11° C | 93% | 1014.9 hPa | 0 mm | - | - | - |
| 1788391820 | 26.11° C | 93% | 1014.9 hPa | 0 mm | - | - | - |
| 1788391520 | 26.11° C | 93% | 1014.9 hPa | 0.25 mm | - | - | - |
| 1788391228 | 26.11° C | 93% | 1014.8 hPa | 0.76 mm | - | - | - |
| 1788390920 | 26.11° C | 93% | 1014.7 hPa | 1.52 mm | - | - | - |
| 1788390620 | 26.11° C | 93% | 1014.5 hPa | 2.29 mm | - | - | - |
| 1788390320 | 26.11° C | 92% | 1014.6 hPa | 2.54 mm | - | - | - |
| 1788390029 | 26.11° C | 92% | 1014.5 hPa | 2.54 mm | - | - | - |
| 1788389721 | 26.11° C | 92% | 1014.5 hPa | 2.54 mm | - | - | - |
| 1788389419 | 26.11° C | 92% | 1014.3 hPa | 2.54 mm | - | - | - |
| 1788389120 | 26.11° C | 92% | 1014.4 hPa | 2.54 mm | - | - | - |
| 1788388828 | 26.11° C | 91% | 1014.5 hPa | 2.54 mm | - | - | - |
| 1788388520 | 26.11° C | 91% | 1014.6 hPa | 2.54 mm | - | - | - |
| 1788388220 | 26.11° C | 90% | 1014.5 hPa | 2.54 mm | - | - | - |
| 1788387920 | 26.11° C | 89% | 1014.4 hPa | 2.29 mm | - | - | - |
| 1788387628 | 26.67° C | 88% | 1014.4 hPa | 1.78 mm | - | - | - |
| 1788387320 | 27.22° C | 86% | 1014.3 hPa | 0.76 mm | - | - | - |
| 1788387019 | 27.78° C | 84% | 1014.3 hPa | 0.25 mm | - | - | - |
| 1788386720 | 28.89° C | 86% | 1014.3 hPa | 0 mm | - | - | - |
| 1788386431 | 28.89° C | 86% | 1014.2 hPa | 0 mm | - | - | - |
| 1788386120 | 28.89° C | 87% | 1014.2 hPa | 0 mm | - | - | - |
| 1788385820 | 28.33° C | 88% | 1014.3 hPa | 0 mm | - | - | - |
| 1788385520 | 28.33° C | 89% | 1014.4 hPa | 0 mm | - | - | - |
| 1788385229 | 28.33° C | 90% | 1014.2 hPa | 0 mm | - | - | - |
* Rain latest hour (hover to see other rain measurements)
** Current wind speed in m/s (hover to see current wind gust speed)